Regional Weather Roundup
Issued by NWS Charleston, SC

Current Version | Previous Version | Graphics & Text | Print | Product List | Glossary On
Versions: 1 2 3 4 5 6 7 8 9 10 11 12 13 14 15 16 17 18 19 20 21 22 23 24 25 26 27 28 29 30 31 32 33 34 35 36 37 38 39 40 41 42 43 44 45 46 47 48 49 50
000
ASUS42 KCHS 182227
RWRCHS

REGIONAL WEATHER ROUNDUP
NATIONAL WEATHER SERVICE CHARLESTON SC
600 PM EDT SAT APR 18 2015

NOTE: "FAIR" INDICATES FEW OR NO CLOUDS BELOW 12,000 FEET WITH NO
SIGNIFICANT WEATHER AND/OR OBSTRUCTIONS TO VISIBILITY.

NOT ALL STATIONS ARE QUALITY CONTROLLED BY THE NATIONAL
WEATHER SERVICE. USE DATA WITH CAUTION...ESPECIALLY
DEWPOINT OBSERVATIONS.

SCZ027-030-031-034>040-042>050-182300-
...SOUTHEAST SOUTH CAROLINA...

CITY           SKY/WX    TMP DP  RH WIND       PRES   REMARKS
N CHARLESTON   PTSUNNY   72  67  84 SE7       29.94R
WATERFRONT PRK NOT AVBL
MOUNT PLEASANT CLOUDY    70  68  94 CALM      29.95R
PINOPOLIS      NOT AVBL
MONCKS CORNER  MOCLDY    75  68  78 SE3       29.93S
SUMMERVILLE    RAIN      70  70 100 W5        29.95R
BEAUFORT MCAS    N/A     77  69  76 SE5       29.92S
BEAUFORT ARPT  FAIR      75  68  78 SE6       29.92S
HILTON HEAD IS PTSUNNY   73  70  88 SE3       29.94S
WALTERBORO     MOCLDY    72  68  88 E5        29.94R
ALLENDALE      MOCLDY    75  68  78 N5        29.91S

...SOUTHERN MIDLANDS AND PEE DEE...

CITY           SKY/WX    TMP DP  RH WIND       PRES   REMARKS
GEORGETOWN     NOT AVBL
KINGSTREE      NOT AVBL
ORANGEBURG     PTSUNNY   74  65  73 NE5       29.93R
BARNWELL       MOCLDY    73  70  88 N6        29.93S
AIKEN          CLOUDY    68  64  88 NE3       29.97S
MANNING        RAIN      73  52  46 CALM      29.93S
COLUMBIA       CLOUDY    74  66  76 E8        29.93S
SUMTER         PTSUNNY   73  66  78 CALM      29.92S
FLORENCE       CLOUDY    76  65  68 SE8       29.93S
MYRTLE BEACH   PTSUNNY   73  64  73 E8        29.96F
N MYRTLE BEACH MOSUNNY   70  64  81 E9        29.95S

$$

GAZ063-065-086>088-099>101-113>116-118-119-134>141-150-182300-
...SOUTHEAST GEORGIA...

CITY           SKY/WX    TMP DP  RH WIND       PRES   REMARKS
SAVANNAH ARPT  MOSUNNY   78  67  68 S9        29.91S
HUNTER AAF     MOSUNNY   77  70  81 SE8       29.89S
FORT STEWART   MOSUNNY   81  66  60 CALM      29.89S
STATESBORO       N/A     81  67  62 CALM      29.90S
SYLVANIA       MOCLDY    77  70  79 N3        29.91S
CLAXTON        FAIR      81  68  65 CALM      29.91R

...CSRA...CENTRAL AND FAR SOUTHEAST GEORGIA...

CITY           SKY/WX    TMP DP  RH WIND       PRES   REMARKS
THOMSON        PTSUNNY   73  70  91 CALM      29.97F
AUGUSTA-BUSH   CLOUDY    73  67  81 N6        29.92R
AUGUSTA-DANIEL CLOUDY    73  66  78 NE5       29.94R
SWAINSBORO     NOT AVBL
VIDALIA        RAIN      81  68  65 NW5       29.91S
EASTMAN        FAIR      80  69  69 W5        29.93F
HAZLEHURST     FAIR      83  67  58 W3        29.90S
ALMA           PTSUNNY   82  66  58 W5        29.91R
WAYCROSS       CLOUDY    85  70  60 NW6       29.90R HX  90
JESUP          FAIR      86  70  58 N3        29.90S HX  90
BAXLEY         FAIR      84  68  58 W3        29.90S
BRUNSWICK      PTSUNNY   77  70  78 E7        29.92R
SAINT SIMONS   MOSUNNY   72  70  93 E9        29.92R

$$

SCZ027-028-034-036>038-045-046-048>050-GAZ119-141-182300-
...LAKE AND SUPPLEMENTAL COASTAL OBSERVATIONS...

STATION/POSITION TIME  TEMP    WIND        PRES    WAVE   SWELL
                       AIR SEA DIR/SP/G            HT/PER HT/PER/DIR
                 (UTC) (F)     (DEG/KT/KT) (MB)    (FT/S) (FT/S/D)
UPR LAKE MARION  NOT AVBL
WINYAH BAY       NOT AVBL
LAKE MURRAY      2100   71     200/  4/  4 1013.5S
ACE BASIN NERRS  NOT AVBL
FORT PULASKI     2200   73 72  110/  5/  8 1013.9R
SAPELO ISLAND    2100   76      90/  7     1013.0S

$$

ANZ835-935-AMZ111-154-330-350-352-354-370-450-454-472-182300-
...C-MAN AND BUOY OBSERVATIONS...

STATION/POSITION TIME  TEMP    WIND        PRES    WAVE   SWELL
                       AIR SEA DIR/SP/G            HT/PER HT/PER/DIR
                 (UTC) (F)     (DEG/KT/KT) (MB)    (FT/S) (FT/S/D)
BUOY 41004       2150   72 75   60/  6/  8 1013.1S   3/ 8   3/ 8
BUOY 41008       2150   71 69  110/  6/  8 1013.4S   3/ 8   3/ 90/ 8
FOLLY BEACH CMAN 2200   68     100/  6/  6 1014.0R
CAPERS NEARSHORE NOT AVBL
FRIPP NEARSHORE  2100   72     100/  8/  8 1013.3F


STATION/POSITION TIME  TEMP    WIND        PRES    WAVE   SWELL
                       AIR SEA DIR/SP/G            HT/PER HT/PER/DIR
                 (UTC) (F)     (DEG/KT/KT) (MB)    (FT/S) (FT/S/D)
5E ST. MARYS GA  2121      72                N/A     2/ 8
FRYING PAN BUOY  2150   72 73   80/ 14/ 16 1013.9F   4/ 8   3/120/ 8
BUOY 41025       2150   72 75   30/  6/  6 1014.2S   5/ 9   5/ 70/ 9
CAPE LOOKOUT NC  2200   71      CALM  /  2 1013.7F
BUOY 41002       2150   72 75  120/  4/  4 1013.9R   5/11   5/ 40/11
BUOY 41010       2120   78 79   70/  2/  4 1014.0R
ST AUGUSTINE FL  2200   70 72   20/ 15/ 17 1013.7R


$$


USA.gov is the U.S. government's official web portal to all federal, state and local government web resources and services.